FENGYUN 1C DEB, 36659

Orbit data source: Space-Track

FENGYUN 1C DEB, 36659 is space debris in SSO originally from a launch on Mon, 10 May 1999 UTC launched from the Taiyaun Space Center, China (TSC). Fengyun 1C debris stems from the Chinese weather satellite Fengyun-1C, which was intentionally destroyed by a Chinese anti-satellite missile in 2007. This event dramatically increased the amount of space debris, with thousands of trackable fragments posing hazards to satellites and human spaceflight. The Fengyun 1C debris cloud has become a focal point in discussions about space sustainability and the need for international regulations to prevent the creation of new debris.

Loading next visibility...
Identifier
36659, 1999-025DYD
Orbit
SSO
Country
Flag of CNCN / PRC
Related business
Manufacturer
Unknown
Mission
Spacecraft
Bus & Motor
Unknown
Mass
Unknown
Launch date (UTC)
1999-05-10 (27 years ago)
Launch vehicle
Unknown
Launch site
Taiyaun Space Center, China (TSC)
Object type
Payload
Rocket body
Debris
Shape & HBR
Unknown shape, 0.1 m
Radar Cross Section
Small (<0.1 m²)

Expand to show TLE details & history
Last TLE update: 19 hours ago

TLE from 19 hours ago
0 FENGYUN 1C DEB
1 36659U 99025DYD 26236.27740469  .00000461  00000-0  39896-3 0  9991
2 36659  99.8483 258.5964 0136286 124.4629 236.9489 13.87741789639559
Epoch: 2026-08-24T06:39Z
TLE epoch observation values (Epoch: 2026-08-24T06:39:27.765Z)
Latitude
-0.00004°
Longitude
-173.8307°
Altitude
994.712 km
Speed
7.327 km/s
True Right ascension
17h 14m 23s
True Declination
0° 00' 00"
Sunlit
Object was in daylight at epoch
Visualization orbit readout
Latitude
Unknown
Longitude
Unknown
Altitude
Unknown
Speed
Unknown
Apparent Right ascension
Unknown
Apparent Declination
Unknown
Sunlit
N/A
Visualization observer readout
Local Sidereal Time
16:39:18
Azimuth
Unknown
Elevation
Unknown
Doppler factor
Unknown
Orbital elements
Apogee altitude
1,033.465 km
Perigee altitude
834.162 km
Semi-major axis
7,311.951 km
Eccentricity
0.01363
Inclination
99.8483°
RAAN
258.5964°
Arg. of periapsis
124.4629°
True anomaly
235.65205°
Mean anomaly
236.9489°
Eccentric anomaly
236.29926°
Mean motion
3.47131 °/min
Orbital period
103.71 mins
BSTAR
0.00039896
Loading maneuver chart data...
Computing Atmospheric mass density...
Loading historical data...
Loading historical data...
Loading historical data...
Loading historical data...
Loading historical data...
Loading historical data...
Loading historical data...

Documentation

Showing up to 5 results
|